Starlink 4622

operational
NORAD ID: 53648 Int'l Des: 2022-105 Owner: SPXS Country: US Constellation: starlink
LEOCIRCULARRETROGRADESSO

About Starlink 4622

Description loading...

Live Position

Loading 3D Globe...

Upcoming Passes

Altitude History

Altitude vs Time

uPlot chart will show altitude changes over time

Two-Line Element Set

1 53648U 22105A 25306.20564828 .00000376 00000-0 33846-4 0 9991
2 53648 97.6018 185.4080 0003551 71.7499 288.4112 15.01266849174118
Epoch: Nov 2, 2025 • Age: 22 hours

Current Status

Altitude 593.6 km
Velocity 7.56 km/s
Sub-Earth Point -82.00°S, 170.29°E
Launch Date Aug 31, 2022
Age 3.1 years
Type internet

Technical Details

Classification Payload
Mass 300.00 kg
Dry Mass 290.00 kg
Total Mass 300.00 kg
Length 0.20 m
Diameter 2.80 m
Span 9.00 m
Shape Box + pan
Manufacturer SPXS
Bus Type Starlink
Phase Status In Orbit
Owner/State SPXS/US

Large Constellations

Loading constellations...